Weather History for La Grande, OR

Change the Weather History Date:

Tuesday, April 15, 2014

  Actual Average Record
Temperature  
Mean Temperature 46 °F -  
Max Temperature 55 °F 54 °F 79 °F (1985)
Min Temperature 37 °F 33 °F 21 °F (1999)
Degree Days  
Heating Degree Days 19    
Moisture  
Dew Point 23 °F    
Average Humidity 38    
Maximum Humidity 53    
Minimum Humidity 25    
Precipitation  
Precipitation 0.00 in - - ()
Sea Level Pressure  
Sea Level Pressure 30.02 in    
Wind  
Wind Speed 11 mph (NW)    
Max Wind Speed 25 mph    
Max Gust Speed 32 mph    
Visibility 10 miles    
Events      
Averages and records for this station are not official NWS values.
T = Trace of Precipitation, MM = Missing Value Source: NWS Daily Summary

Daily Weather History Graph

Daily Weather History Graph

Search for Another Location

Airport:

Trip Planner

Search our weather history database for the weather conditions in past years. The results will help you decide how hot, cold, wet, or windy it might be!

Date:

Astronomy

Apr. 15, 2014 Rise Set
Actual Time 6:06 AM PDT 7:38 PM PDT
Civil Twilight 5:35 AM PDT 8:09 PM PDT
Nautical Twilight 4:58 AM PDT 8:46 PM PDT
Astronomical Twilight 4:18 AM PDT 9:26 PM PDT
Moon 8:26 PM PDT (4/15) 6:16 AM PDT (4/15)
Length of Visible Light 14h 33m
Length of Day
13h 31m
Full, 100% of the Moon is Illuminated
Apr 15
Full
Apr 22
Last Quarter
Apr 28
New
May 6
First Quarter
May 14
Full

Hourly Weather History & Observations

Time (PDT) Temp. Windchill Dew Point Humidity Pressure Visibility Wind Dir Wind Speed Gust Speed Precip Events Conditions
12:15 AM 48.2 °F - 26.6 °F 43% 30.01 in 10.0 mi Calm Calm - N/A   Clear
12:35 AM 48.2 °F - 26.6 °F 43% 30.01 in 10.0 mi NE 3.5 mph - N/A   Scattered Clouds
12:55 AM 46.4 °F 43.5 °F 26.6 °F 46% 30.01 in 10.0 mi NNE 5.8 mph - N/A   Mostly Cloudy
1:15 AM 48.2 °F - 26.6 °F 43% 30.01 in 10.0 mi WNW 11.5 mph 16.1 mph N/A   Partly Cloudy
1:35 AM 51.8 °F - 28.4 °F 41% 30.01 in 10.0 mi WNW 12.7 mph - N/A   Scattered Clouds
1:55 AM 50.0 °F - 28.4 °F 43% 30.01 in 10.0 mi WNW 11.5 mph - N/A   Mostly Cloudy
2:15 AM 48.2 °F - 28.4 °F 46% 30.01 in 10.0 mi NW 12.7 mph 17.3 mph N/A   Overcast
2:35 AM 48.2 °F - 28.4 °F 46% 30.00 in 10.0 mi WNW 8.1 mph - N/A   Overcast
2:55 AM 48.2 °F - 28.4 °F 46% 29.99 in 10.0 mi WNW 15.0 mph 21.9 mph N/A   Mostly Cloudy
3:15 AM 48.2 °F - 28.4 °F 46% 29.99 in 10.0 mi WNW 12.7 mph - N/A   Mostly Cloudy
3:35 AM 48.2 °F - 28.4 °F 46% 29.99 in 10.0 mi NW 12.7 mph - N/A   Overcast
3:55 AM 46.4 °F 42.4 °F 28.4 °F 50% 29.99 in 10.0 mi NNW 8.1 mph - N/A   Mostly Cloudy
4:15 AM 44.6 °F 41.4 °F 26.6 °F 49% 29.99 in 10.0 mi NW 5.8 mph - N/A   Clear
4:35 AM 44.6 °F 42.2 °F 26.6 °F 49% 29.98 in 10.0 mi NNW 4.6 mph - N/A   Clear
4:55 AM 44.6 °F - 28.4 °F 53% 29.98 in 10.0 mi North - - N/A   Partly Cloudy
5:15 AM 46.4 °F 44.3 °F 28.4 °F 50% 29.98 in 10.0 mi NNW 4.6 mph - N/A   Mostly Cloudy
5:35 AM 46.4 °F 44.3 °F 28.4 °F 50% 29.98 in 10.0 mi North 4.6 mph - N/A   Mostly Cloudy
5:55 AM 44.6 °F 40.7 °F 28.4 °F 53% 29.99 in 10.0 mi North 6.9 mph - N/A   Mostly Cloudy
6:15 AM 44.6 °F 41.4 °F 24.8 °F 46% 29.99 in 10.0 mi North 5.8 mph - N/A   Mostly Cloudy
6:35 AM 44.6 °F 40.7 °F 21.2 °F 39% 30.00 in 10.0 mi NW 6.9 mph - N/A   Partly Cloudy
6:55 AM 44.6 °F 38.8 °F 21.2 °F 39% 30.01 in 10.0 mi NW 11.5 mph - N/A   Clear
7:15 AM 46.4 °F 42.4 °F 21.2 °F 37% 30.01 in 10.0 mi NW 8.1 mph 16.1 mph N/A   Clear
7:35 AM 46.4 °F 41.1 °F 19.4 °F 34% 30.02 in 10.0 mi NW 11.5 mph - N/A   Scattered Clouds
7:55 AM 46.4 °F 40.4 °F 21.2 °F 37% 30.01 in 10.0 mi NNW 13.8 mph - N/A   Overcast
8:15 AM 46.4 °F 40.7 °F 19.4 °F 34% 30.01 in 10.0 mi North 12.7 mph - N/A   Scattered Clouds
8:35 AM 46.4 °F 38.3 °F 19.4 °F 34% 30.01 in 10.0 mi NNW 23.0 mph - N/A   Clear
8:55 AM 48.2 °F - 17.6 °F 30% 30.02 in 10.0 mi NNW 23.0 mph 27.6 mph N/A   Clear
9:15 AM 48.2 °F - 19.4 °F 32% 30.02 in 10.0 mi WNW 20.7 mph - N/A   Clear
9:55 AM 48.2 °F - 21.2 °F 34% 30.03 in 10.0 mi NW 20.7 mph 25.3 mph N/A   Clear
10:15 AM 50.0 °F - 23.0 °F 35% 30.03 in 10.0 mi NW 23.0 mph 29.9 mph N/A   Partly Cloudy
10:55 AM 51.8 °F - 24.8 °F 35% 30.04 in 10.0 mi NW 24.2 mph 29.9 mph N/A   Clear
11:15 AM 50.0 °F - 23.0 °F 35% 30.04 in 10.0 mi NW 18.4 mph 26.5 mph N/A   Clear
11:35 AM 51.8 °F - 24.8 °F 35% 30.04 in 10.0 mi NNW 17.3 mph 27.6 mph N/A   Partly Cloudy
11:55 AM 51.8 °F - 24.8 °F 35% 30.04 in 10.0 mi NNW 21.9 mph 26.5 mph N/A   Partly Cloudy
12:15 PM 51.8 °F - 23.0 °F 33% 30.05 in 10.0 mi NW 19.6 mph 29.9 mph N/A   Clear
12:35 PM 51.8 °F - 23.0 °F 33% 30.05 in 10.0 mi NW 16.1 mph 29.9 mph N/A   Partly Cloudy
12:55 PM 53.6 °F - 23.0 °F 30% 30.04 in 10.0 mi WNW 18.4 mph 29.9 mph N/A   Partly Cloudy
1:15 PM 55.4 °F - 24.8 °F 31% 30.04 in 10.0 mi WNW 23.0 mph 27.6 mph N/A   Clear
1:35 PM 55.4 °F - 24.8 °F 31% 30.03 in 10.0 mi NW 18.4 mph 26.5 mph N/A   Clear
1:55 PM 55.4 °F - 23.0 °F 29% 30.03 in 10.0 mi NW 20.7 mph 24.2 mph N/A   Partly Cloudy
2:15 PM 55.4 °F - 21.2 °F 26% 30.03 in 10.0 mi NW 25.3 mph 32.2 mph N/A   Partly Cloudy
2:35 PM 55.4 °F - 23.0 °F 29% 30.03 in 10.0 mi NW 17.3 mph 25.3 mph N/A   Scattered Clouds
2:55 PM 55.4 °F - 21.2 °F 26% 30.03 in 10.0 mi NW 23.0 mph 32.2 mph N/A   Mostly Cloudy
3:15 PM 55.4 °F - 21.2 °F 26% 30.02 in 10.0 mi WNW 15.0 mph 27.6 mph N/A   Mostly Cloudy
3:35 PM 55.4 °F - 21.2 °F 26% 30.02 in 10.0 mi WNW 23.0 mph 28.8 mph N/A   Mostly Cloudy
3:55 PM 55.4 °F - 21.2 °F 26% 30.01 in 10.0 mi WNW 17.3 mph 29.9 mph N/A   Partly Cloudy
4:15 PM 55.4 °F - 19.4 °F 25% 30.01 in 10.0 mi WNW 18.4 mph 27.6 mph N/A   Clear
4:35 PM 55.4 °F - 21.2 °F 26% 30.01 in 10.0 mi NW 15.0 mph 27.6 mph N/A   Clear
4:55 PM 55.4 °F - 21.2 °F 26% 30.01 in 10.0 mi NW 20.7 mph 27.6 mph N/A   Clear
5:15 PM 55.4 °F - 21.2 °F 26% 30.01 in 10.0 mi NW 19.6 mph 23.0 mph N/A   Clear
5:35 PM 53.6 °F - 19.4 °F 26% 30.01 in 10.0 mi NW 15.0 mph 20.7 mph N/A   Clear
5:55 PM 53.6 °F - 19.4 °F 26% 30.01 in 10.0 mi NW 16.1 mph 20.7 mph N/A   Clear
6:15 PM 53.6 °F - 19.4 °F 26% 30.01 in 10.0 mi NNW 17.3 mph 21.9 mph N/A   Clear
6:35 PM 51.8 °F - 19.4 °F 28% 30.01 in 10.0 mi WNW 18.4 mph 23.0 mph N/A   Clear
6:55 PM 51.8 °F - 19.4 °F 28% 30.01 in 10.0 mi NW 10.4 mph - N/A   Clear
7:15 PM 48.2 °F - 19.4 °F 32% 30.00 in 10.0 mi NW 11.5 mph - N/A   Clear
7:35 PM 48.2 °F - 21.2 °F 34% 30.01 in 10.0 mi NNW 6.9 mph - N/A   Clear
7:55 PM 46.4 °F 41.9 °F 21.2 °F 37% 30.01 in 10.0 mi NNW 9.2 mph - N/A   Clear
8:15 PM 46.4 °F 41.5 °F 21.2 °F 37% 30.01 in 10.0 mi NNW 10.4 mph - N/A   Clear
8:35 PM 46.4 °F - 21.2 °F 37% 30.03 in 10.0 mi Calm Calm - N/A   Clear
8:55 PM 44.6 °F - 21.2 °F 39% 30.04 in 10.0 mi Calm Calm - N/A   Clear
9:15 PM 44.6 °F - 21.2 °F 39% 30.03 in 10.0 mi Calm Calm - N/A   Clear
9:35 PM 42.8 °F 40.1 °F 21.2 °F 42% 30.03 in 10.0 mi West 4.6 mph - N/A   Clear
9:55 PM 41.0 °F 37.1 °F 21.2 °F 45% 30.03 in 10.0 mi West 5.8 mph - N/A   Clear
10:15 PM 39.2 °F 34.2 °F 21.2 °F 49% 30.03 in 10.0 mi WNW 6.9 mph - N/A   Clear
10:35 PM 37.4 °F 32.8 °F 21.2 °F 52% 30.04 in 10.0 mi SSE 5.8 mph - N/A   Clear
10:55 PM 41.0 °F - 23.0 °F 49% 30.04 in 10.0 mi Calm Calm - N/A   Clear
11:15 PM 37.4 °F 34.9 °F 21.2 °F 52% 30.04 in 10.0 mi NNW 3.5 mph - N/A   Clear
11:35 PM 41.0 °F - 24.8 °F 53% 30.05 in 10.0 mi Calm Calm - N/A   Partly Cloudy
11:55 PM 39.2 °F 37.0 °F 23.0 °F 52% 30.05 in 10.0 mi North 3.5 mph - N/A   Mostly Cloudy